TimeCST,TemperatureF,Dew PointF,Humidity,Sea Level PressureIn,VisibilityMPH,Wind Direction,Wind SpeedMPH,Gust SpeedMPH,PrecipitationIn,Events,Conditions,WindDirDegrees,DateUTC
12:52 AM,28.0,19.0,69,30.16,10.0,South,13.8,-,N/A,,Overcast,170,2013-01-25 06:52:00
1:52 AM,28.0,23.0,81,30.14,10.0,South,13.8,-,N/A,,Overcast,170,2013-01-25 07:52:00
2:52 AM,28.0,24.1,85,30.15,10.0,North,-9999.0,-,N/A,,Overcast,0,2013-01-25 08:52:00
3:52 AM,27.0,25.0,92,30.16,8.0,South,4.6,-,N/A,,Overcast,180,2013-01-25 09:52:00
4:52 AM,28.0,25.0,88,30.14,8.0,South,6.9,-,N/A,,Overcast,180,2013-01-25 10:52:00
5:12 AM,28.0,25.0,88,30.09,8.0,North,-9999.0,-,N/A,,Overcast,0,2013-01-25 11:12:00
5:48 AM,28.4,24.8,86,30.11,8.0,SSW,4.6,-,N/A,,Overcast,200,2013-01-25 11:48:00
5:52 AM,28.0,25.0,88,30.14,8.0,SSW,3.5,-,N/A,,Overcast,200,2013-01-25 11:52:00
6:07 AM,28.0,25.0,88,30.11,7.0,SW,3.5,-,N/A,,Overcast,230,2013-01-25 12:07:00
6:19 AM,28.0,25.0,88,30.11,8.0,Calm,Calm,-,N/A,,Overcast,0,2013-01-25 12:19:00
6:42 AM,28.0,25.0,88,30.11,7.0,SSW,3.5,29.9,N/A,,Overcast,210,2013-01-25 12:42:00
6:52 AM,28.0,25.0,88,30.16,7.0,SSW,5.8,-,N/A,,Overcast,210,2013-01-25 12:52:00
7:52 AM,28.9,26.1,89,30.18,7.0,WSW,3.5,-,N/A,,Overcast,240,2013-01-25 13:52:00
8:52 AM,32.0,26.1,79,30.20,10.0,WNW,3.5,-,N/A,,Overcast,300,2013-01-25 14:52:00
9:49 AM,35.6,26.6,70,30.18,10.0,NW,11.5,-,N/A,,Scattered Clouds,320,2013-01-25 15:49:00
9:52 AM,36.0,25.0,64,30.21,10.0,NW,10.4,-,N/A,,Partly Cloudy,320,2013-01-25 15:52:00
10:52 AM,37.9,25.0,60,30.22,10.0,North,12.7,-,N/A,,Clear,350,2013-01-25 16:52:00
11:52 AM,39.9,24.1,53,30.21,10.0,NNW,8.1,-,N/A,,Clear,340,2013-01-25 17:52:00
12:52 PM,43.0,24.1,47,30.21,10.0,NNW,8.1,-,N/A,,Clear,330,2013-01-25 18:52:00
1:52 PM,45.0,24.1,44,30.20,10.0,NNW,9.2,-,N/A,,Clear,330,2013-01-25 19:52:00
2:52 PM,46.9,24.1,41,30.19,10.0,NW,6.9,-,N/A,,Clear,320,2013-01-25 20:52:00
3:52 PM,46.9,24.1,41,30.19,10.0,NW,5.8,-,N/A,,Clear,310,2013-01-25 21:52:00
4:52 PM,43.0,26.1,51,30.21,10.0,NNW,4.6,-,N/A,,Clear,340,2013-01-25 22:52:00
5:52 PM,41.0,25.0,53,30.21,10.0,North,4.6,-,N/A,,Clear,360,2013-01-25 23:52:00
6:52 PM,37.9,24.1,57,30.22,10.0,North,4.6,-,N/A,,Clear,350,2013-01-26 00:52:00
7:52 PM,39.0,24.1,55,30.24,10.0,NW,4.6,-,N/A,,Clear,310,2013-01-26 01:52:00
8:52 PM,37.0,23.0,57,30.24,10.0,North,3.5,-,N/A,,Clear,350,2013-01-26 02:52:00
9:52 PM,32.0,23.0,69,30.27,10.0,Calm,Calm,-,N/A,,Clear,0,2013-01-26 03:52:00
10:52 PM,30.9,23.0,72,30.27,10.0,Calm,Calm,-,N/A,,Clear,0,2013-01-26 04:52:00
11:52 PM,30.9,23.0,72,30.27,10.0,Calm,Calm,-,N/A,,Clear,0,2013-01-26 05:52:00